| time (UTC) | temp F | wind direction | speed knots | gust knots | rain 1hr in | rain 24hr in | rain mn in | humidity % | barometer mb |
| 20260503050045 | 49 | 209 | 5.2 | 7.8 | 0.00 | 0.00 | 0.00 | 62 | 1006.6 |
| 20260503044607 | 49 | 215 | 4.3 | 7.8 | 0.00 | 0.00 | 0.00 | 64 | 1006.7 |
| 20260503043040 | 49 | 221 | 3.5 | 6.1 | 0.00 | 0.00 | 0.00 | 65 | 1006.8 |
| 20260503041553 | 49 | 202 | 3.5 | 6.1 | 0.00 | 0.00 | 0.00 | 66 | 1007.0 |
| 20260503040048 | 48 | 186 | 2.6 | 5.2 | 0.00 | 0.00 | 0.00 | 69 | 1007.0 |
| 20260503034542 | 47 | 209 | 1.7 | 3.5 | 0.00 | 0.00 | 0.00 | 70 | 1007.2 |
| 20260503033041 | 46 | 209 | 1.7 | 3.5 | 0.00 | 0.00 | 0.00 | 74 | 1007.4 |
| 20260503031543 | 45 | 207 | 1.7 | 3.5 | 0.00 | 0.00 | 0.00 | 67 | 1007.7 |
| 20260503030050 | 46 | 205 | 2.6 | 6.1 | 0.00 | 0.00 | 0.00 | 68 | 1008.0 |
| 20260503024551 | 46 | 144 | 0.9 | 4.3 | 0.00 | 0.00 | 0.00 | 64 | 1008.1 |
| 20260503023047 | 45 | 180 | 0.0 | 3.5 | 0.00 | 0.00 | 0.00 | 60 | 1008.3 |
| 20260503021547 | 46 | 0 | 0.0 | 0.9 | 0.00 | 0.00 | 0.00 | 58 | 1008.6 |
| 20260503020046 | 47 | 0 | 0.0 | 0.0 | 0.00 | 0.00 | 0.00 | 58 | 1008.5 |
| 20260503014553 | 49 | 0 | 0.0 | 0.0 | 0.00 | 0.00 | 0.00 | 58 | 1008.6 |
| 20260503013048 | 50 | 0 | 0.0 | 3.5 | 0.00 | 0.00 | 0.00 | 56 | 1008.5 |
| 20260503011545 | 52 | 218 | 1.7 | 3.5 | 0.00 | 0.00 | 0.00 | 57 | 1008.7 |
| 20260503010042 | 52 | 264 | 3.5 | 7.8 | 0.00 | 0.00 | 0.00 | 54 | 1008.8 |
| 20260503004547 | 53 | 250 | 4.3 | 8.7 | 0.00 | 0.00 | 0.00 | 49 | 1008.8 |
| 20260503003050 | 53 | 256 | 5.2 | 10.4 | 0.00 | 0.00 | 0.00 | 52 | 1008.9 |
| 20260503001600 | 54 | 265 | 6.1 | 12.2 | 0.00 | 0.00 | 0.00 | 47 | 1008.9 |
| 20260503000106 | 54 | 261 | 4.3 | 9.6 | 0.00 | 0.00 | 0.00 | 47 | 1008.9 |
| 20260502234559 | 54 | 198 | 5.2 | 9.6 | 0.00 | 0.00 | 0.00 | 48 | 1008.9 |
| 20260502233047 | 55 | 237 | 3.5 | 8.7 | 0.00 | 0.00 | 0.00 | 46 | 1009.0 |
| 20260502231545 | 55 | 224 | 6.1 | 9.6 | 0.00 | 0.00 | 0.00 | 44 | 1008.9 |
| 20260502230045 | 55 | 0 | 0.0 | 5.2 | 0.00 | 0.00 | 0.00 | 38 | 1009.1 |
| 20260502224543 | 55 | 269 | 2.6 | 10.4 | 0.00 | 0.00 | 0.00 | 46 | 1009.3 |
| 20260502223047 | 56 | 319 | 5.2 | 9.6 | 0.00 | 0.00 | 0.00 | 38 | 1009.5 |
| 20260502221547 | 56 | 302 | 5.2 | 11.3 | 0.00 | 0.00 | 0.00 | 39 | 1009.5 |
| 20260502220050 | 56 | 269 | 7.0 | 12.2 | 0.00 | 0.00 | 0.00 | 42 | 1009.6 |
| 20260502214606 | 57 | 296 | 7.0 | 13.0 | 0.00 | 0.00 | 0.00 | 39 | 1009.7 |
| 20260502213103 | 58 | 215 | 4.3 | 10.4 | 0.00 | 0.00 | 0.00 | 32 | 1009.9 |
| 20260502211540 | 58 | 306 | 3.5 | 6.1 | 0.00 | 0.00 | 0.00 | 29 | 1010.0 |
| 20260502210048 | 57 | 0 | 0.9 | 9.6 | 0.00 | 0.00 | 0.00 | 30 | 1010.1 |
| 20260502204546 | 57 | 315 | 4.3 | 7.8 | 0.00 | 0.00 | 0.00 | 34 | 1010.2 |
| 20260502203108 | 56 | 281 | 4.3 | 8.7 | 0.00 | 0.00 | 0.00 | 37 | 1010.6 |
| 20260502201544 | 56 | 0 | 1.7 | 9.6 | 0.00 | 0.00 | 0.00 | 29 | 1010.7 |
| 20260502200047 | 56 | 278 | 5.2 | 14.8 | 0.00 | 0.00 | 0.00 | 37 | 1011.2 |
| 20260502194548 | 56 | 268 | 0.9 | 13.0 | 0.00 | 0.00 | 0.00 | 34 | 1011.4 |
| 20260502193048 | 56 | 247 | 5.2 | 9.6 | 0.00 | 0.00 | 0.00 | 42 | 1011.7 |
| 20260502191548 | 56 | 326 | 4.3 | 9.6 | 0.00 | 0.00 | 0.00 | 35 | 1011.9 |
| 20260502190045 | 56 | 286 | 6.1 | 9.6 | 0.00 | 0.00 | 0.00 | 40 | 1012.3 |
| 20260502184543 | 55 | 302 | 7.0 | 15.6 | 0.00 | 0.00 | 0.00 | 41 | 1012.5 |
| 20260502183048 | 54 | 227 | 7.8 | 12.2 | 0.00 | 0.00 | 0.00 | 43 | 1012.8 |
| 20260502181547 | 54 | 190 | 0.9 | 4.3 | 0.00 | 0.00 | 0.00 | 33 | 1012.9 |
| 20260502163059 | 51 | 0 | 2.6 | 7.8 | 0.00 | 0.00 | 0.00 | 37 | 1014.2 |
| 20260502161554 | 50 | 272 | 3.5 | 10.4 | 0.00 | 0.00 | 0.00 | 42 | 1014.3 |
| 20260502151544 | 47 | 226 | 4.3 | 7.8 | 0.00 | 0.00 | 0.00 | 48 | 1014.9 |
| 20260502123109 | 26 | 0 | 0.0 | 0.0 | 0.00 | 0.00 | 0.00 | 93 | 1015.8 |
| 20260502121557 | 25 | 0 | 0.0 | 0.0 | 0.00 | 0.00 | 0.00 | 92 | 1015.8 |
| 20260502114547 | 24 | 0 | 0.0 | 0.0 | 0.00 | 0.00 | 0.00 | 92 | 1015.8 |
| 20260502113050 | 23 | 0 | 0.0 | 0.0 | 0.00 | 0.00 | 0.00 | 91 | 1015.9 |
| 20260502111547 | 23 | 0 | 0.0 | 0.0 | 0.00 | 0.00 | 0.00 | 91 | 1015.8 |
| 20260502110046 | 23 | 0 | 0.0 | 0.0 | 0.00 | 0.00 | 0.00 | 91 | 1015.7 |
| 20260502104548 | 23 | 0 | 0.0 | 0.0 | 0.00 | 0.00 | 0.00 | 91 | 1015.8 |
| 20260502103047 | 23 | 0 | 0.0 | 0.0 | 0.00 | 0.00 | 0.00 | 91 | 1015.8 |
| 20260502101547 | 23 | 0 | 0.0 | 0.0 | 0.00 | 0.00 | 0.00 | 91 | 1015.9 |
| 20260502070101 | 26 | 0 | 0.0 | 0.0 | 0.00 | 0.00 | 0.00 | 87 | 1016.1 |
| 20260502064553 | 26 | 0 | 0.0 | 0.0 | 0.00 | 0.00 | 0.00 | 87 | 1016.2 |
| 20260502063050 | 26 | 0 | 0.0 | 0.0 | 0.00 | 0.00 | 0.00 | 86 | 1016.3 |
| 20260502061542 | 26 | 0 | 0.0 | 0.0 | 0.00 | 0.00 | 0.00 | 86 | 1016.4 |
| 20260502060052 | 27 | 0 | 0.0 | 0.0 | 0.00 | 0.00 | 0.00 | 85 | 1016.3 |
| 20260502054545 | 27 | 0 | 0.0 | 0.0 | 0.00 | 0.00 | 0.00 | 85 | 1016.3 |
| 20260502053045 | 27 | 0 | 0.0 | 0.0 | 0.00 | 0.00 | 0.00 | 84 | 1016.3 |
| 20260502051559 | 27 | 0 | 0.0 | 0.0 | 0.00 | 0.00 | 0.00 | 84 | 1016.4 |